7 * 24
多渠道服务支持
NAVSTAR 21(USA 64)是美国于1990年10月1日08:00发射的GPS导航卫星,隶属于美国全球定位系统(NAVSTAR GPS)星座。作为第二代GPS卫星成员,它承担全球定位导航服务,为军民用户提供高精度的定位、测速和授时支撑,是美国构建全球导航网络过程中的重要组网卫星,推动了GPS系统全球覆盖能力的形成。
美国
(US)
| 数据来源 | 国际轨道数据 |
| 星历时间: | 2026-06-18T13:21:20+0800 6天前 查看轨道信息 |
| 半长轴: | 27755.172km |
| 偏心率: | 0.0022358 |
| 轨道倾角: | 56.469° |
| 近地点辐角 | 291.677° |
| 升交点赤经 | 9.869° |
| 平近点角 | 233.719° |
| 近地点: | 21314.979km |
| 远地点: | 21439.091km |
| 周期: | 766.965分钟 |
| 每日圈数: | 1.87753 |